Regional Weather Roundup
Issued by NWS

Home | Current Version | Previous Version | Graphics & Text | Print | Product List | Glossary On
Versions: 1 2 3 4 5 6 7 8 9 10 11 12 13 14 15 16 17 18 19 20 21 22 23 24 25 26 27 28 29 30 31 32 33 34 35 36 37 38 39 40 41 42 43 44 45 46 47 48 49 50
000
ASUS45 KABQ 291501
RWRNM
WEATHER ROUNDUP FOR NEW MEXICO
NATIONAL WEATHER SERVICE ALBUQUERQUE NM
900 AM MDT SUN MAR 29 2015

NOTE: "FAIR" MEANS FEW OR NO CLOUDS BELOW 12,000 FEET AGL WITH NO
       SIGNIFICANT WEATHER OR OBSTRUCTIONS TO VISION.

      THIS PRODUCT IS RELEASED AS TWO VERSIONS.  ONE VERSION NEAR
      THE TOP OF THE HOUR CONTAINING PRELIMINARY DATA FROM ALBUQUERQUE
      AND OTHER STATIONS.  A FINAL VERSION WITH ADDITIONAL DATA IS
      ISSUED ABOUT 10 MINUTES AFTER THE HOUR.

NMZ501-503-504-510>518-291600-
NORTHWEST PLATEAU/NORTHCENTRAL MOUNTAINS

CITY           SKY/WX    TMP DP  RH WIND       PRES   REMARKS
FARMINGTON     SUNNY     46  22  38 E10       30.26R
LOS ALAMOS     SUNNY     53  21  28 CALM      30.32R
SANTA FE       SUNNY     53  18  25 CALM      30.27R
TAOS           SUNNY     54  27  35 N15       30.32S
ANGEL FIRE     FAIR      45  23  41 CALM      30.37R

$$
NMZ402-403-502-505>509-291600-
WESTCENTRAL MOUNTAINS/SOUTHWEST MOUNTAINS

CITY           SKY/WX    TMP DP  RH WIND       PRES   REMARKS
GALLUP         SUNNY     49  19  30 W5        30.32S
GRANTS         SUNNY     48  18  30 NW3       30.33S

$$
NMZ407-409-411-412-291600-
SOUTHERN DESERTS

CITY           SKY/WX    TMP DP  RH WIND       PRES   REMARKS
LORDSBURG      FAIR      54  18  24 CALM      30.23R
DEMING         SUNNY     53  15  22 CALM      30.22R
LAS CRUCES     SUNNY     66  11  12 NW5       30.22R
ALAMOGORDO     SUNNY     57  16  19 CALM      30.20R
T OR C         SUNNY     65   7  10 NW9       30.24R

$$
NMZ519>523-291600-
CENTRAL VALLEYS/CENTRAL HIGHLANDS

CITY           SKY/WX    TMP DP  RH WIND       PRES   REMARKS
ALBUQUERQUE    MOSUNNY   57  18  21 SE5       30.26R
DOUBLE EAGLE   SUNNY     57  18  21 CALM      30.27S
CLINES CORNERS SUNNY     57  16  20 NW14      30.27R
BELEN          FAIR      62  14  15 CALM      30.26R
SOCORRO        FAIR      59  19  21 SE9       30.24R

$$
NMZ524>526-539-540-291600-
SOUTHCENTRAL MOUNTAINS

CITY           SKY/WX    TMP DP  RH WIND       PRES   REMARKS
RUIDOSO        NOT AVBL

$$
NMZ527>531-291600-
NORTHEAST HIGHLANDS/NORTHEAST PLAINS

CITY           SKY/WX    TMP DP  RH WIND       PRES   REMARKS
LAS VEGAS      SUNNY     60  19  20 NE3       30.27R
RATON          SUNNY     61  25  25 NE16      30.24R
CLAYTON        SUNNY     61  32  33 N29G36    30.21R

$$
NMZ532>537-291600-
EASTCENTRAL PLAINS

CITY           SKY/WX    TMP DP  RH WIND       PRES   REMARKS
TUCUMCARI      SUNNY     69  23  17 NE17      30.16R
CANNON AFB     NOT AVBL
CLOVIS AIRPORT SUNNY     70  28  21 N28G35    30.14R

$$
NMZ028-029-538-291600-
SOUTHEAST PLAINS

CITY           SKY/WX    TMP DP  RH WIND       PRES   REMARKS
ROSWELL        SUNNY     72  23  16 W9        30.11R
ARTESIA        SUNNY     61  28  29 CALM      30.13R
CARLSBAD       SUNNY     67  25  20 N7        30.11R
HOBBS          SUNNY     72  21  15 NW21G28   30.09R


$$



USA.gov is the U.S. government's official web portal to all federal, state and local government web resources and services.